This is the latest recevied weather packets stored in our database for station/object KH6DH-13. If no packets are shown the sender has not sent any weather packets the latest 10 day(s).
| Time | Temp. | Humidity | Pressure | Rain* | Wind** | Luminosity | Snow |
|---|---|---|---|---|---|---|---|
| 1777942644 | 30° C | - | - | 0 mm | 2.24 m/s, 27° | - | - |
| 1777942043 | 28.89° C | - | - | 0 mm | 3.13 m/s, 70° | - | - |
| 1777941442 | 29.44° C | - | - | 0 mm | 3.58 m/s, 125° | - | - |
| 1777940841 | 28.89° C | - | - | 0 mm | 1.79 m/s, 58° | - | - |
| 1777940240 | 29.44° C | - | - | 0 mm | 2.68 m/s, 51° | - | - |
| 1777939639 | 28.89° C | - | - | 0 mm | 1.34 m/s, 101° | - | - |
| 1777939038 | 28.89° C | - | - | 0 mm | 1.79 m/s, 111° | - | - |
| 1777938437 | 28.89° C | - | - | 0 mm | 3.13 m/s, 82° | - | - |
| 1777937836 | 28.89° C | - | - | 0 mm | 2.24 m/s, 70° | - | - |
| 1777937235 | 28.89° C | - | - | 0 mm | 0.89 m/s, 44° | - | - |
| 1777936634 | 28.89° C | - | - | 0 mm | 2.68 m/s, 51° | - | - |
| 1777936033 | 28.89° C | - | - | 0 mm | 3.13 m/s, 98° | - | - |
| 1777935428 | 28.89° C | - | - | 0 mm | 1.79 m/s, 107° | - | - |
| 1777934827 | 28.89° C | - | - | 0 mm | 2.68 m/s, 8° | - | - |
| 1777934226 | 28.89° C | - | - | 0 mm | 1.79 m/s, 153° | - | - |
| 1777933624 | 28.33° C | - | - | 0 mm | 2.24 m/s, 32° | - | - |
| 1777933023 | 28.33° C | - | - | 0 mm | 3.58 m/s, 46° | - | - |
| 1777932422 | 27.78° C | - | - | 0 mm | 2.68 m/s, 101° | - | - |
| 1777931821 | 27.78° C | - | - | 0 mm | 2.68 m/s, 111° | - | - |
| 1777931220 | 27.78° C | - | - | 0 mm | 3.13 m/s, 30° | - | - |
| 1777930619 | 27.22° C | - | - | 0 mm | 2.68 m/s, 91° | - | - |
| 1777930018 | 27.78° C | - | - | 0 mm | 2.68 m/s, 8° | - | - |
| 1777929417 | 27.22° C | - | - | 0 mm | 3.13 m/s, 41° | - | - |
| 1777928816 | 27.22° C | - | - | 0 mm | 2.24 m/s, 136° | - | - |
| 1777928215 | 27.22° C | - | - | 0 mm | 3.13 m/s, 89° | - | - |
* Rain latest hour (hover to see other rain measurements)
** Current wind speed in m/s (hover to see current wind gust speed)